SL-14 DEB, 45315

Orbit data source: Space-Track

SL-14 DEB, 45315 is space debris in LEO originally from a launch on Thu, 15 Aug 1991 UTC launched from the Plesetsk Missile And Space Complex (PKMTR). Debris objects in space refer to the collection of defunct objects orbiting the Earth. Examples of debris include non-operational satellites, rocket bodies, and fragments generated from explosions, collisions, or faulty payload assembly.

Loading next visibility...
SL-14 DEB details
Identifier
45315, 1991-056BD
Orbit
LEO
Last TLE update14 hours ago
Origin
Flag of CISRosgidromet (CIS)
ManufacturerUnknown
MissionSpacecraft
Bus & MotorUnknown
MassUnknown
Launch date (UTC)
1991-08-15 (33 years ago)
Launch vehicleUnknown
Launch site
Plesetsk Missile And Space Complex (PKMTR)
Object type
Payload
Rocket body
Debris
Shape & HBRUnknown
Radar Cross SectionSmall (<0.1 m²)

Expand to show TLE details & history

TLE from 14 hours ago
0 SL-14 DEB
1 45315U 91056BD  24361.20217562  .00000607  00000-0  15852-2 0  9996
2 45315  82.5608 165.8255 0026533 101.7971 258.6129 13.15127105231887
Epoch: 2024-12-26T04:51Z
Definitive object data (Epoch: 2024-12-26T04:51:07.973Z)
Latitude
Longitude-2.14268°
Altitude1,210.219 km
Speed7.247 km/s
True Right ascension11h 03m 18s
True Declination0° 00' 00"
Sunlit
Object was in daylight at TLE epoch
Visualization TLE readout
Latitude37.32283°
Longitude171.77723°
Altitude1,193.46 km
Speed7.268 km/s
Apparent Right ascension01h 39m 59s
Apparent Declination4° 18' 18"
Sunlit
Object is in daylight
Visualization observer readout
Local Sidereal Time17:43:37
Azimuth67.068° ENE
Elevation-18.886°
Doppler factor1
Orbital elements
Apogee altitude1,220.746 km
Perigee altitude1,180.528 km
Semi-major axis7,578.774 km
Eccentricity0.0026533
Inclination82.5608°
RAAN165.8255°
Arg. of periapsis101.7971°
True anomaly258.31504°
Mean anomaly258.6129°
Eccentric anomaly258.46395°
Mean motion3.28961 °/min
BSTAR0.0015852
Orbital period109.44 mins
Loading maneuver chart data...
Loading historical data...
Loading historical data...
Loading historical data...
Loading historical data...
Loading historical data...
Loading historical data...
Loading historical data...

SL-14 DEB Visibility forecast

Observer location: undefined°, undefined

Span
Click to sort rows by Start time (UTC) header in descending order
Start Az.
Max El. time (UTC)
Max El. Az.
Max El.
End time (UTC)
End Az.
11 mins2024-12-26 21:53:08.615Z17.593° NNE2024-12-26 21:58:08.615Z66.6° ENE25.294°2024-12-26 22:04:08.615Z126.268° SE
11 mins2024-12-26 23:44:08.615Z336.177° NNW2024-12-26 23:49:08.615Z268.538° W37.876°2024-12-26 23:55:08.615Z198.825° SSW
6 mins2024-12-27 10:14:08.615Z100.564° ESE2024-12-27 10:16:08.615Z82.168° E15.601°2024-12-27 10:20:08.615Z47.176° ENE
12 mins2024-12-27 12:00:08.615Z190.331° SSW2024-12-27 12:06:08.615Z319.768° NNW44.516°2024-12-27 12:12:08.615Z5.356° NNE
5 mins2024-12-27 13:55:08.615Z278.123° WNW2024-12-27 13:57:08.615Z295.505° NW13.357°2024-12-27 14:00:08.615Z321.284° NNW
|